Tracking 35274 objects as of 11-Sep-2026
HD Live streaming from Space Station
objects crossing your sky now

ATLAS D DEB


ATLAS D DEB is no longer on orbit


NORAD ID: 2283
Int'l Code: 1966-046BA
Launch date: June 1, 1966
Source: United States (US)
Launch site: AIR FORCE EASTERN TEST RANGE (AFETR)
Decay date: 1966-07-04

Note: This is SATELLITE DEBRIS
Your satellite tracking list
Your tracking list is empty




NASA's NSSDC Master Catalog

Two Line Element Set (TLE):
1 02283U 66046 BA 66172.16496479  .00372618 +43042-3 +00000-0 0  9998
2 02283 028.6520 166.8642 0287836 314.8953 042.8312 16.77322940003284
Source of the keplerian elements: AFSPC